{"data":{"norad_id":69509,"epoch":"2026-09-19T11:30:16.441344Z","epoch_age_seconds":113660,"freshness":"FRESH","line1":"1 69509U 26133B   26262.47935696  .00017323  00000+0  52267-3 0  9991","line2":"2 69509  53.1559 234.7696 0001434  88.0150 272.1017 15.34398022 15340","mean_motion":15.34398022,"eccentricity":0.0001434,"inclination_deg":53.1559,"raan_deg":234.7696,"arg_perigee_deg":88.015,"mean_anomaly_deg":272.1017,"bstar":0.00052267,"rev_number":1534,"period_min":93.847879060939,"perigee_km":461.72814191276,"apogee_km":463.69009657976,"semimajor_km":6840.8461192463,"source":"CELESTRAK","updated_at":"2026-09-20T09:00:44.210534Z"}}